Portada
METAR-TAF:

METAR-TAF

Aeroports :

Lifuka, Tonga

latitud: 19-46-36S, longitud: 174-20-28W, altitud: 9 m

Observació

L'informe es va fer fa 22 minuts, a les 01:00 UTC
Vent 11 kt del Sud-Est
Temperatura 25°C
Humitat 74%
Pressió 1017 hPa
Visibilitat 10 km o més
Escasses núvols a una alçada de 1800 ft

METAR: NFTL 100100Z 13011KT 9999 FEW018 25/20 Q1017

Hora: 14:22 (01:22 UTC)


TAF: manca

Observacions i pronòstics meteorològics de més de 4000 aeroports (METAR i TAF).

Les estacions disponibles són els punts grocs i vermells al mapa.

Posi el ratolí al punt desitjat per veure el nom de l'estació.

Feu clic per veure les observacions i els pronòstics meteorològics.

Per canviar el mapa: feu clic els botons verds amb una creu de color negre per apropar; al botó verd amb un guió per allunyar la imatge; o en les fletxes verdes per a mapes adjacents.


METAR-TAF: